GFSFLT2_prec_cloud_003.txt.gz
Cloud_Cover
0 0 0 0 0 0 0 0 0 0 0 0 0 0 0 0 0 0 0 5 1 0 0 0 0 0 0 0 0 0 0 0
0 0 0 0 0 0 0 0 1 0 0 0 0 0 0 0 0 0 3 3 5 0 0 0 0 0 0 0 0 0 0 0
0 0 0 0 0 0 0 0 0 0 0 0 0 0 0 0 0 0 0 1 2 0 0 0 0 0 0 0 0 0 0 0
0 0 0 0 0 0 0 0 0 0 0 0 0 0 0 0 0 0 0 0 0 0 0 0 0 0 0 0 0 0 0 0
0 0 0 0 0 0 0 0 0 0 0 0 0 0 0 0 0 2 0 0 0 0 0 0 0 0 0 0 0 0 0 0
0 0 1 0 0 0 0 0 0 0 0 0 0 0 0 0 0 0 6 0 0 0 0 0 0 0 0 0 0 0 0 0
0 0 0 0 0 0 0 0 0 0 0 0 0 0 0 0 0 0 5 0 0 0 0 0 0 0 0 0 5 5 5 30
0 0 0 0 0 0 0 0 0 0 0 0 0 0 0 0 0 0 0 0 0 0 0 0 0 0 0 3 3 0 1 5
0 0 0 0 0 0 0 0 0 0 0 0 0 0 0 2 5 0 0 0 0 0 0 0 0 0 0 0 0 0 0 5
7 0 0 0 0 0 0 0 0 0 0 0 0 4 0 5 0 0 0 0 0 0 0 0 0 0 0 0 0 5 5 6
95 100 0 0 0 0 0 0 0 0 0 0 1 16 7 43 0 0 0 0 5 0 0 0 0 0 0 0 4 5 5 31
100 100 24 0 0 0 0 0 0 0 0 0 16 96 98 74 5 0 0 5 1 0 0 0 0 0 0 82 30 5 13 46
100 100 35 73 0 0 0 0 0 0 0 5 11 54 96 5 5 44 12 46 5 4 4 0 0 0 0 3 13 1 21 97
100 100 100 100 100 36 0 0 0 5 41 5 100 1 1 2 27 43 36 14 81 59 45 49 5 0 0 0 16 80 84 100
53 46 100 95 100 100 69 0 50 54 70 88 96 87 92 5 5 23 100 97 100 100 100 98 9 62 5 56 95 100 96 100
100 95 100 65 89 100 57 28 100 75 30 100 57 100 94 98 9 28 94 77 41 5 5 5 12 4 1 53 97 98 100 100
100 100 100 100 100 100 99 9 7 34 92 40 100 88 100 53 100 68 25 66 40 60 33 3 2 10 30 48 52 33 71 100
100 100 100 100 100 100 100 100 83 100 79 100 47 76 100 90 70 92 100 100 100 100 10 24 3 12 37 31 46 78 100 100
100 100 100 100 100 100 100 100 100 100 100 100 100 100 100 100 100 100 100 100 89 39 5 10 53 20 53 45 50 50 27 31

GFSFLT2_prec_cloud_006.txt.gz
Cloud_Cover
0 0 0 0 0 0 5 33 36 3 1 0 0 0 0 0 0 3 5 0 0 0 0 0 0 0 0 0 0 0 0 0
0 0 0 0 0 0 1 33 98 5 15 3 0 0 0 0 0 0 0 0 0 0 0 0 0 0 0 0 0 0 0 0
0 0 0 0 0 0 1 4 14 43 5 4 0 0 0 0 0 3 1 0 0 0 0 0 0 0 0 0 0 0 0 0
0 0 0 0 0 0 0 0 4 3 1 5 2 0 0 0 5 1 0 0 2 0 0 0 0 0 0 0 0 0 0 0
0 0 0 0 0 0 0 0 4 5 0 3 2 0 0 0 0 0 0 0 0 0 0 0 0 0 0 0 0 0 0 0
0 0 0 0 0 0 0 0 1 1 62 5 1 0 0 0 0 0 0 0 0 2 0 0 0 0 0 0 0 0 0 0
0 0 2 0 0 0 0 0 1 2 5 84 99 42 0 0 0 0 0 0 1 5 0 0 0 0 0 0 0 0 0 0
5 2 0 0 0 0 0 0 0 0 0 5 93 51 4 0 0 0 0 0 9 100 6 0 0 0 0 0 0 0 0 0
4 48 22 3 0 4 0 0 0 0 0 2 7 5 2 0 0 0 0 0 0 95 6 0 0 0 0 0 0 0 0 0
73 100 85 0 2 0 1 0 0 0 0 1 0 1 0 0 0 1 0 0 0 5 1 0 0 0 0 0 0 0 0 0
85 96 100 2 54 22 0 0 0 0 0 0 0 0 0 0 0 1 0 0 2 0 0 0 0 0 0 0 0 0 0 0
100 94 48 90 29 0 0 0 0 0 0 5 5 2 0 0 0 4 2 0 0 0 0 0 0 0 0 0 0 0 0 0
100 94 80 3 69 84 0 0 0 0 0 0 4 0 0 0 0 33 0 0 0 0 0 4 0 0 0 3 0 4 0 0
100 100 81 4 100 97 0 0 0 0 0 0 0 0 0 2 46 89 7 12 3 0 2 0 0 0 29 28 52 6 5 9
33 5 0 16 100 100 98 1 0 0 0 0 0 0 1 7 100 82 5 5 18 5 5 5 40 83 100 99 69 12 57 100
4 0 2 100 100 100 100 100 2 0 0 0 2 1 50 81 100 68 76 100 100 74 51 62 14 20 100 9 11 1 26 61
0 0 100 100 100 100 100 100 88 36 2 7 97 80 47 4 100 76 32 77 98 100 87 16 19 100 80 86 90 36 51 67
7 7 65 100 100 99 100 100 100 100 9 77 78 41 99 85 99 97 72 47 100 99 29 100 98 100 100 100 73 99 98 73
60 15 100 100 100 100 100 100 100 100 15 94 61 81 3 100 100 100 94 48 100 100 100 100 100 100 50 99 100 72 5 5

GFSFLT2_prec_cloud_009.txt.gz
Cloud_Cover
0 0 1 0 0 0 5 73 91 94 50 94 100 97 64 5 5 47 5 0 2 0 0 0 0 0 0 0 0 0 0 0
0 0 0 0 3 0 0 17 100 98 91 100 47 4 4 5 5 5 5 0 5 0 0 0 0 0 0 0 0 0 0 0
0 0 1 1 0 0 2 27 11 85 97 100 100 96 2 3 4 25 5 0 0 0 0 0 0 0 0 0 0 0 0 0
0 0 0 0 0 0 0 0 4 32 100 100 88 3 1 5 5 67 98 1 0 3 0 0 0 0 0 0 0 0 0 0
0 0 0 0 0 3 0 2 4 13 1 85 100 99 99 50 3 0 94 100 2 0 0 0 0 0 0 0 0 0 0 0
0 0 0 0 0 0 0 0 0 2 60 94 45 42 21 2 0 1 65 1 0 0 0 0 0 0 0 0 0 0 0 0
0 4 5 4 0 0 0 0 0 0 5 5 14 91 45 33 0 0 0 0 0 0 0 0 0 0 0 0 0 0 0 0
4 2 2 6 10 5 0 0 0 0 4 5 7 100 95 5 0 0 0 2 0 0 0 0 1 0 0 0 0 0 0 0
5 5 72 58 0 0 4 5 1 0 0 5 69 97 31 4 0 0 0 0 0 0 0 0 5 5 0 0 0 0 0 0
71 100 92 1 8 32 6 5 10 5 0 0 0 4 17 49 4 0 0 0 0 0 0 0 5 4 5 0 0 0 0 0
97 86 11 2 38 18 26 4 3 6 12 0 0 0 5 52 86 6 0 3 0 0 0 0 1 5 1 0 0 0 0 0
100 100 88 72 96 20 57 0 0 31 70 5 5 5 3 47 100 100 15 0 0 0 0 0 0 0 0 0 0 0 0 0
68 90 38 86 16 55 15 59 29 0 0 4 4 2 100 29 11 99 10 6 5 5 5 5 2 0 0 0 0 0 0 2
70 100 52 35 11 50 46 5 2 0 0 0 7 77 40 1 0 5 5 5 5 5 5 5 5 5 0 0 0 0 8 95
97 92 48 9 49 5 0 0 2 5 1 0 2 10 0 0 0 0 1 5 5 5 5 5 5 5 3 5 5 5 38 100
100 38 39 88 28 82 1 1 40 80 26 0 0 0 0 0 0 0 5 32 0 4 5 5 5 5 8 23 9 48 54 96
31 88 100 10 5 4 0 53 93 100 6 78 76 86 88 94 63 52 38 76 17 15 42 71 5 5 5 7 32 81 99 100
99 29 16 5 11 5 1 56 97 90 57 100 100 100 100 100 90 77 100 100 78 77 68 66 8 74 100 75 7 42 97 100
100 100 5 5 5 13 12 86 81 100 98 100 100 93 86 91 13 95 100 99 94 100 100 100 100 100 100 100 100 99 88 100

GFSFLT2_prec_cloud_015.txt.gz
Cloud_Cover
0 0 0 0 0 0 0 0 0 0 0 0 5 59 100 100 9 66 100 100 86 5 0 0 0 0 0 0 0 0 0 0
0 0 0 0 0 0 0 0 0 0 0 0 1 18 5 5 66 5 87 100 45 5 0 0 0 0 0 0 0 0 0 0
0 0 0 0 0 0 0 0 0 0 0 0 1 70 10 5 17 5 22 87 0 0 0 0 0 0 0 0 0 0 0 0
0 0 0 0 0 0 0 0 0 0 1 0 5 38 100 14 18 43 8 41 16 3 0 0 0 0 0 0 0 0 0 0
0 93 15 4 0 0 0 0 0 0 6 98 3 10 10 8 100 100 100 22 5 4 2 0 0 0 0 0 0 0 0 0
5 19 3 5 0 0 0 0 0 0 0 0 8 15 89 59 90 96 100 100 80 2 5 0 1 0 0 0 0 0 0 0
5 0 0 5 0 5 0 0 0 0 0 0 0 15 19 87 70 100 77 100 72 2 5 4 0 0 0 0 0 0 0 0
0 3 4 0 0 0 0 0 0 0 0 0 0 73 91 87 100 45 96 76 95 64 5 3 0 0 0 0 0 0 0 0
0 5 8 0 0 0 0 0 0 0 0 0 0 0 0 96 87 28 4 98 78 100 7 4 1 1 0 0 0 0 0 0
0 5 55 1 0 0 0 0 4 1 0 0 0 0 0 1 99 33 53 5 49 100 100 5 2 2 0 0 0 0 0 0
4 0 0 0 3 8 5 3 5 3 0 0 0 0 0 0 2 2 0 4 89 45 98 100 55 1 0 5 5 2 4 4
6 3 0 4 33 100 66 0 5 5 1 0 1 0 0 0 0 0 0 0 0 97 100 100 36 3 0 0 0 0 0 0
12 0 0 5 99 100 35 5 5 7 0 0 0 0 0 0 0 0 0 0 3 5 19 74 75 7 5 2 0 0 0 10
90 64 5 76 100 53 5 7 28 16 8 3 0 0 0 0 0 0 0 0 0 71 51 5 1 0 4 8 0 0 0 18
100 100 100 100 100 59 99 97 25 59 36 3 98 61 0 0 0 0 0 0 0 3 89 78 4 0 0 0 11 5 0 13
53 92 54 97 97 59 62 100 100 10 73 82 100 70 0 0 0 0 0 0 0 0 0 79 90 61 5 3 0 2 65 6
100 100 95 77 33 67 100 100 100 100 100 94 4 0 0 0 2 0 0 0 0 0 0 7 100 100 100 79 36 69 85 98
100 100 56 100 100 100 100 100 100 100 100 5 0 0 0 0 1 68 100 100 100 42 83 14 16 77 89 100 6 92 99 100
100 100 100 100 95 100 100 100 96 70 5 5 7 0 0 5 100 100 100 100 100 100 100 100 64 5 21 6 3 100 100 100

GFSFLT2_prec_cloud_021.txt.gz
Cloud_Cover
0 0 0 0 0 0 0 0 0 0 4 0 0 0 16 3 11 99 96 74 5 5 6 98 18 72 0 0 0 0 0 0
0 0 0 0 0 0 0 0 0 0 0 0 0 0 49 5 1 22 4 5 27 5 21 52 79 7 4 2 0 0 0 0
0 0 0 0 0 0 0 0 0 0 0 0 0 0 0 4 0 0 1 0 7 5 7 22 84 83 95 95 79 0 0 0
0 0 0 0 0 0 0 0 0 0 0 0 0 0 0 0 4 0 0 2 3 94 100 31 46 86 99 100 100 1 0 0
0 0 1 1 3 5 5 0 0 0 0 0 0 0 0 0 0 0 0 0 0 41 5 42 5 10 97 71 15 48 1 0
5 0 2 1 5 0 4 0 9 1 0 0 0 0 0 0 0 0 0 0 0 0 72 69 4 5 5 94 100 100 51 0
1 3 37 99 45 5 5 32 4 100 1 0 0 0 0 0 0 0 0 2 4 0 17 11 4 5 50 4 50 84 48 0
0 4 1 5 6 89 32 100 9 97 13 100 2 0 0 0 0 0 0 0 0 4 1 0 37 36 75 35 5 5 4 0
0 0 0 0 99 100 100 86 100 100 91 99 15 0 0 1 0 0 0 0 0 0 4 0 22 99 93 92 58 5 0 0
0 0 0 8 13 0 0 5 66 100 100 23 5 5 0 0 0 0 0 0 0 0 0 3 2 0 100 100 62 50 1 4
0 0 0 0 1 0 0 4 5 39 100 98 70 5 5 4 0 0 0 0 0 0 0 0 0 0 73 100 93 67 16 0
5 4 0 0 0 0 0 0 0 2 9 45 100 6 5 0 0 0 0 0 0 0 0 0 0 0 0 0 0 0 94 100
45 77 0 1 12 0 0 3 0 5 2 61 98 79 4 5 5 1 0 0 0 0 0 0 0 5 5 4 2 3 5 85
17 99 5 5 12 58 62 18 0 2 11 30 38 40 87 56 5 1 0 4 0 0 0 0 0 0 23 4 4 88 96 84
68 16 5 35 96 100 99 46 36 5 18 18 49 63 98 39 22 5 5 17 42 22 0 0 0 0 0 4 3 5 48 64
100 65 100 100 100 100 47 39 10 54 44 28 53 42 62 72 50 5 5 0 0 1 10 16 17 12 0 0 0 0 5 1
100 100 100 100 79 64 42 5 96 99 60 0 0 1 5 12 5 5 4 0 2 51 0 0 0 0 0 7 0 3 5 20
50 100 100 100 26 7 25 3 5 63 100 70 8 16 34 35 48 65 39 6 63 3 3 4 1 0 0 0 62 3 84 98
83 100 100 100 100 100 98 7 78 64 99 100 100 100 100 90 43 80 90 5 5 0 0 4 1 97 97 3 28 49 100 100

GFSFLT2_prec_cloud_027.txt.gz
Cloud_Cover
0 0 0 0 0 0 0 0 0 0 0 0 0 0 5 3 4 0 0 0 0 0 0 0 0 0 0 0 0 0 0 0
0 0 0 0 0 0 0 0 0 0 0 0 0 0 9 5 0 1 0 0 0 0 0 0 0 4 0 0 0 0 0 0
0 0 0 0 0 0 0 0 0 0 0 0 0 0 3 2 5 12 6 1 6 20 75 46 37 5 5 0 0 0 0 0
0 0 0 0 0 0 0 0 0 0 0 0 0 0 0 0 5 7 5 56 97 93 97 94 93 19 5 2 2 5 5 5
0 0 0 0 0 0 0 0 0 0 0 0 0 0 0 0 0 3 8 17 5 23 5 100 98 25 4 4 1 0 1 0
0 0 0 0 0 0 0 0 0 2 2 0 0 0 0 0 0 0 5 5 4 5 5 9 68 5 4 4 0 0 0 5
0 0 0 0 0 0 0 17 0 94 0 0 0 0 0 0 0 0 0 4 5 5 2 0 2 4 0 0 0 0 0 0
0 0 0 0 0 0 0 5 3 100 20 0 0 0 0 0 0 0 0 0 0 0 0 2 4 0 0 0 2 3 0 5
0 0 0 0 0 0 0 5 5 97 94 0 0 0 0 0 0 0 0 0 0 0 0 0 3 5 2 0 45 52 5 5
0 0 0 0 0 0 0 3 6 100 100 2 0 0 0 0 0 0 0 0 0 0 0 0 0 0 0 3 3 5 90 5
0 0 0 0 0 0 0 2 55 100 100 54 0 0 5 5 3 0 0 0 0 0 0 0 0 0 0 0 1 1 0 5
4 0 0 0 0 0 0 0 20 100 100 71 5 0 0 3 3 3 2 0 0 0 0 0 0 0 0 0 0 0 0 0
5 0 0 0 0 0 0 5 1 47 71 6 5 5 0 0 0 0 0 0 0 0 0 0 0 0 0 0 0 0 0 0
4 0 0 0 0 0 0 2 0 5 19 63 14 0 0 0 0 0 0 0 0 0 0 0 0 0 0 0 0 0 0 0
5 0 0 0 0 8 35 0 0 0 8 91 96 0 0 0 0 0 0 0 0 0 0 0 3 1 2 5 4 0 0 0
1 0 0 0 0 0 0 0 5 18 48 100 45 0 0 0 0 0 0 0 3 3 3 1 0 1 5 5 5 4 0 0
12 5 1 0 0 0 0 18 37 40 82 96 37 0 0 0 0 0 0 0 0 1 2 5 4 0 0 2 5 5 0 0
15 2 3 0 0 0 0 0 0 70 93 46 69 100 100 76 11 0 0 0 0 0 0 0 0 0 0 0 0 0 0 0
5 15 5 87 4 0 5 28 10 99 100 100 100 97 100 100 100 100 90 11 0 16 17 15 2 6 24 52 37 18 6 1

GFSFLT2_prec_cloud_030.txt.gz
Cloud_Cover
0 0 0 0 0 0 0 0 0 0 0 0 0 0 5 5 0 0 0 0 0 0 0 0 0 0 0 0 0 0 0 0
0 0 0 0 0 0 0 0 0 0 0 0 0 0 3 2 0 0 0 0 0 0 0 0 0 0 0 0 0 0 0 0
0 0 0 0 0 0 0 0 0 0 0 0 0 0 0 0 0 0 0 0 0 0 0 0 0 0 0 0 0 0 0 0
0 0 0 0 0 0 0 0 0 0 0 0 0 0 0 0 0 0 0 4 4 0 0 0 0 0 0 5 0 0 0 0
0 0 0 0 0 0 3 5 0 0 0 0 0 0 0 0 0 0 0 0 0 0 0 3 5 3 1 3 0 0 0 0
0 0 0 0 0 0 3 0 3 0 0 0 0 0 0 0 0 0 0 0 4 0 4 5 5 49 13 5 4 0 0 0
0 0 0 0 0 0 0 32 9 52 0 0 0 0 0 0 0 0 0 0 1 5 5 5 5 12 62 93 23 8 2 0
0 0 0 0 0 0 0 38 19 99 4 0 0 0 0 0 0 0 0 0 2 5 27 66 5 5 5 5 88 13 4 4
0 0 0 0 0 0 0 5 24 100 13 0 0 0 0 0 0 0 0 0 0 0 0 3 4 1 0 0 0 0 0 1
0 0 0 0 0 0 0 2 7 100 5 0 0 0 0 0 0 0 0 0 0 0 0 0 0 0 0 0 0 0 0 9
1 0 0 0 0 0 0 2 29 100 19 5 0 0 0 0 0 0 0 0 0 0 0 0 0 0 0 0 0 0 0 5
4 0 0 0 0 0 0 2 65 100 100 98 4 0 0 0 0 0 0 0 0 0 0 0 0 0 0 0 0 0 0 0
5 2 0 0 0 0 0 0 6 100 98 5 26 5 0 0 0 1 5 0 0 0 0 0 0 0 0 0 0 0 0 0
2 5 1 0 0 0 0 0 2 99 100 5 17 23 0 0 0 0 5 5 0 0 0 0 0 0 0 0 0 0 0 0
3 0 0 0 0 0 0 0 0 29 100 52 5 5 5 0 0 0 0 0 0 0 0 0 0 0 0 0 0 0 0 0
38 3 5 5 0 0 0 0 0 1 98 98 12 5 0 0 0 0 0 0 0 0 0 0 0 0 0 0 0 0 0 0
87 39 16 5 0 0 0 0 0 0 2 46 55 5 5 0 0 0 5 0 0 0 0 0 0 0 0 3 2 0 0 0
36 55 91 54 66 0 0 0 0 0 0 1 11 100 4 45 53 26 1 0 0 0 0 0 0 0 0 0 0 0 0 0
33 57 97 37 6 5 15 0 0 0 0 1 68 100 100 100 100 98 34 2 3 16 14 2 0 0 10 7 0 0 0 0

GFSFLT2_prec_cloud_033.txt.gz
Cloud_Cover
0 0 0 0 0 0 0 0 0 0 0 0 0 0 0 1 1 5 5 0 0 0 0 0 0 0 0 0 0 1 5 1
0 0 0 0 0 0 0 0 0 0 0 0 0 0 0 0 0 0 3 0 0 0 0 0 0 0 0 0 0 5 5 0
0 0 0 0 0 0 0 0 0 0 0 0 0 0 0 0 0 0 0 0 0 0 0 0 0 0 0 0 0 0 0 0
0 0 0 0 0 0 0 0 0 0 0 0 0 0 0 0 0 0 0 0 0 0 0 0 0 0 0 0 0 0 0 0
4 0 0 0 0 0 0 0 0 0 0 0 0 0 0 0 0 0 0 0 0 0 0 0 0 0 0 0 0 0 0 0
0 1 0 0 0 0 0 0 0 1 0 0 0 0 0 0 0 0 0 0 1 2 2 0 0 0 0 0 0 0 0 0
1 100 9 0 0 0 0 0 2 5 0 0 0 0 0 0 0 0 0 0 0 0 0 0 0 0 0 0 0 0 0 0
0 79 5 0 0 0 0 0 2 12 5 0 0 0 0 0 0 0 0 0 0 0 0 0 0 1 5 5 69 99 14 1
39 19 47 0 0 0 0 2 5 44 5 2 0 0 0 0 0 0 0 0 0 0 0 0 3 5 5 2 4 4 5 97
48 23 13 0 0 0 0 0 0 32 6 5 0 0 0 0 0 0 0 0 0 0 0 0 0 0 0 0 1 0 3 1
2 1 1 0 0 0 0 0 0 5 5 8 2 0 0 0 0 0 0 0 0 0 0 0 0 0 0 0 0 5 1 0
92 72 78 75 83 0 0 0 5 5 5 7 4 0 0 0 0 0 0 0 0 0 0 0 0 0 0 0 0 4 5 2
98 100 63 99 99 38 1 26 60 4 5 41 11 0 0 0 0 0 0 0 0 0 0 0 0 0 0 0 0 4 2 2
86 97 76 81 79 96 78 5 0 3 68 70 88 80 1 0 0 0 0 0 0 0 0 0 0 0 0 0 0 0 0 0
96 78 5 5 76 39 74 5 0 8 41 92 100 100 10 0 0 0 0 0 4 0 0 0 0 0 0 0 0 0 0 0
92 25 82 1 3 5 3 4 4 4 60 79 100 100 63 5 0 0 0 0 0 2 0 0 0 0 0 0 0 0 0 0
24 13 44 5 1 3 1 0 0 0 79 5 72 99 100 25 7 0 0 9 0 0 0 0 2 5 4 0 0 0 0 0
99 83 17 10 54 4 0 0 0 0 9 72 12 89 100 100 89 47 2 6 18 15 4 2 1 3 3 0 24 7 0 0
67 64 100 97 79 70 75 0 0 0 0 19 13 50 100 100 100 61 22 100 100 97 73 79 79 2 0 0 0 0 0 0

GFSFLT2_prec_cloud_036.txt.gz
Cloud_Cover
0 0 0 0 0 0 0 0 0 0 0 0 0 0 3 96 94 54 5 42 10 0 0 0 0 0 0 0 0 0 0 5
0 0 0 0 0 0 0 0 0 0 0 0 0 0 0 0 27 77 5 5 5 0 0 0 0 0 0 0 0 0 0 3
2 0 0 0 0 0 0 0 0 4 5 0 0 0 0 0 0 5 6 5 5 0 0 0 0 0 0 0 0 0 0 0
27 0 0 0 0 0 0 0 0 6 76 0 0 0 0 0 0 2 11 88 5 2 0 0 0 0 0 0 0 0 0 5
13 74 27 0 0 0 0 0 0 0 0 0 4 0 0 0 0 0 2 5 5 2 0 0 0 0 0 0 0 0 0 4
1 0 11 0 0 0 0 0 0 0 0 0 0 0 0 0 0 0 0 3 1 1 0 0 0 0 0 0 0 0 0 0
16 35 100 0 0 0 0 0 0 0 1 0 0 0 0 0 0 0 0 2 65 4 1 0 0 0 0 0 0 0 0 0
5 28 92 82 11 0 0 0 0 0 50 0 0 0 0 0 0 0 0 0 2 0 34 77 1 0 0 0 0 0 0 0
0 5 26 98 63 78 2 0 1 0 56 35 25 0 0 0 0 0 0 0 0 0 1 0 0 0 0 0 0 0 0 0
12 99 100 37 92 3 51 4 0 0 70 100 99 5 0 0 0 0 0 0 0 0 0 0 0 0 0 0 0 0 0 0
17 100 62 78 5 8 5 55 100 72 28 87 5 5 0 0 0 0 0 0 0 0 0 0 0 1 2 0 0 0 1 2
5 85 93 99 97 100 100 6 100 100 98 6 1 0 0 0 0 0 0 0 0 0 0 0 0 0 0 0 0 0 0 2
76 10 100 100 100 99 99 100 72 5 33 4 0 0 5 0 0 0 0 0 0 0 0 0 0 0 5 5 5 4 5 5
96 6 100 50 100 100 100 43 4 3 0 0 0 0 0 0 0 0 0 0 0 0 0 0 0 0 0 1 4 4 2 2
100 55 90 100 100 100 27 100 99 2 0 0 0 0 5 41 0 0 0 0 0 0 0 0 0 0 0 0 0 0 0 0
96 11 72 100 70 70 53 6 28 40 2 0 0 6 38 42 4 0 0 8 29 0 0 0 0 0 0 0 0 0 0 0
74 7 18 14 5 5 5 0 2 5 5 1 0 5 64 6 5 59 0 22 0 0 2 0 0 0 0 0 0 0 0 0
5 5 5 1 0 2 1 0 0 0 5 5 0 14 100 100 96 34 0 0 0 1 19 4 0 0 0 0 0 0 0 0
5 1 2 0 0 0 0 0 0 0 0 0 0 0 55 100 100 100 28 20 9 64 100 100 97 11 0 0 0 0 0 0

GFSFLT2_prec_cloud_042.txt.gz
Cloud_Cover
0 0 0 0 0 0 0 0 0 0 0 0 0 0 3 0 47 4 5 5 0 5 0 0 0 0 0 0 0 0 0 0
0 2 0 0 0 0 0 0 0 0 0 0 0 0 0 0 0 0 0 5 2 0 0 0 0 0 0 0 0 0 0 0
78 6 0 0 0 0 0 0 0 0 0 0 0 0 0 0 0 0 0 0 0 0 5 5 0 0 0 0 0 0 0 0
0 0 2 6 0 0 0 0 0 0 0 0 0 0 0 0 0 0 0 0 0 5 44 5 0 0 0 0 0 0 0 0
0 2 85 29 0 0 0 0 0 0 0 0 0 0 0 0 0 0 0 0 0 3 5 5 0 0 0 0 0 0 0 0
5 0 40 0 2 0 0 0 0 0 0 0 0 0 0 0 0 0 0 0 0 0 3 0 0 0 0 0 0 0 0 0
0 0 1 0 0 1 0 0 0 0 0 0 1 0 0 0 0 0 0 0 0 0 2 4 1 5 0 0 0 0 0 0
0 0 0 0 0 0 0 0 5 0 0 5 4 0 5 0 0 0 0 0 0 0 2 5 1 5 0 0 0 0 0 0
0 31 87 22 12 3 0 0 5 4 2 9 24 1 25 2 0 0 0 0 0 0 0 0 0 0 1 0 0 0 0 0
5 99 99 100 100 5 1 36 3 0 1 100 83 26 19 4 0 0 0 0 0 0 0 0 4 3 5 2 0 0 0 0
60 100 100 100 100 65 5 0 4 0 9 95 10 0 0 0 0 0 0 0 0 0 0 0 0 0 0 0 1 0 0 0
70 100 100 100 100 100 13 1 5 3 0 5 4 5 0 0 0 0 0 0 0 0 0 0 0 0 2 1 5 5 4 2
100 100 100 100 100 94 72 62 66 4 0 0 0 0 2 4 0 0 0 0 0 0 0 0 0 4 52 80 100 99 88 13
100 90 100 100 100 100 96 100 84 39 0 0 0 0 5 0 0 0 0 0 0 0 0 0 0 0 0 0 67 81 8 88
100 76 100 100 100 100 100 100 93 5 1 0 0 0 5 1 0 4 0 0 0 0 0 0 0 0 0 7 0 10 11 9
84 55 19 100 83 100 100 93 100 10 66 21 0 0 1 1 0 0 4 0 0 0 0 0 0 0 0 0 0 0 0 0
95 13 6 95 98 100 100 100 24 0 1 0 11 0 0 1 5 4 0 0 0 0 0 0 0 0 0 0 0 0 0 0
100 96 100 99 100 100 100 100 93 46 2 18 24 16 0 5 56 5 16 0 0 0 0 0 0 0 0 0 0 0 0 0
100 100 100 100 99 100 100 100 100 48 13 37 99 100 50 4 12 57 5 98 0 0 0 0 0 0 0 0 0 0 0 0

GFSFLT2_prec_cloud_045.txt.gz
Cloud_Cover
0 0 0 0 0 0 0 0 3 0 0 0 0 0 0 0 0 0 4 94 100 89 47 0 0 0 0 0 0 0 0 0
0 1 3 0 0 0 0 0 0 0 0 0 0 0 0 0 0 0 0 36 100 96 51 25 0 0 0 0 0 0 0 0
0 1 0 0 0 0 0 0 0 0 0 0 0 0 0 0 0 0 0 5 55 36 91 22 1 0 0 0 0 0 0 0
0 0 0 1 0 41 2 0 0 0 0 0 0 0 0 0 0 0 0 5 5 5 51 66 0 0 0 0 0 0 0 0
0 6 2 94 6 0 0 0 0 0 0 0 0 0 0 0 0 0 0 0 72 46 4 6 16 0 0 0 0 0 0 0
5 59 96 49 7 0 0 0 0 0 0 0 0 0 0 0 0 0 0 0 2 2 2 6 54 3 0 0 0 0 0 0
6 63 74 5 5 1 0 0 0 2 0 0 0 0 0 0 0 0 0 0 0 0 0 6 63 4 0 0 0 0 0 0
5 27 95 10 92 5 0 0 0 1 0 0 0 0 0 0 0 0 0 0 0 0 0 0 5 4 0 0 0 0 0 0
6 27 100 100 100 89 63 2 0 3 0 1 0 0 0 0 0 0 0 0 0 0 0 0 1 4 0 0 0 0 0 0
38 5 99 100 100 100 99 4 0 0 0 1 0 1 0 0 3 0 0 0 0 0 0 0 1 4 3 4 0 0 0 0
100 71 72 100 96 100 94 4 0 0 0 1 5 5 0 0 0 13 0 0 0 0 0 0 0 0 5 4 0 0 0 0
100 100 88 100 100 88 6 6 0 0 0 0 1 16 43 1 0 0 0 0 0 0 0 0 1 0 3 2 0 0 1 2
100 100 80 100 87 63 95 3 20 0 0 0 10 49 96 29 16 28 2 8 0 0 0 0 0 0 4 5 5 42 6 0
100 100 100 100 44 69 28 74 77 4 0 31 99 100 100 11 0 5 5 0 2 4 2 0 0 0 0 19 5 5 12 0
100 100 100 100 79 100 100 100 93 10 53 99 100 100 100 52 6 2 7 5 0 0 1 0 0 0 0 5 5 5 5 3
100 100 100 100 92 84 90 100 100 87 100 100 100 100 100 83 93 3 5 5 5 0 2 18 0 0 0 3 4 16 54 92
100 100 100 100 100 100 100 90 100 100 100 100 100 100 100 100 48 93 5 5 5 5 2 2 1 0 0 0 0 1 0 0
100 100 100 90 71 90 100 100 100 100 100 100 100 100 93 98 78 12 33 5 5 5 38 5 1 0 0 0 0 0 0 0
100 100 100 98 83 98 98 100 100 100 100 100 100 100 100 75 16 18 78 1 62 5 6 39 5 0 0 0 0 0 0 0

GFSFLT2_prec_cloud_048.txt.gz
Cloud_Cover
0 0 0 0 0 0 0 0 0 0 0 0 0 0 0 5 5 0 0 5 46 28 69 74 0 0 0 0 1 0 0 0
0 0 2 0 0 0 0 0 0 0 0 0 0 0 0 2 3 1 0 3 8 68 70 74 2 0 0 0 0 0 0 0
0 0 1 0 1 0 0 0 0 0 0 0 0 0 0 0 0 0 0 4 5 5 42 92 30 0 0 0 0 0 0 0
0 3 1 46 5 2 0 0 0 0 0 0 0 0 0 0 5 3 2 4 83 40 16 6 5 1 0 0 4 0 0 0
0 86 0 69 87 42 5 19 0 0 0 0 0 0 0 0 0 5 4 5 91 95 5 5 40 3 0 0 0 0 0 0
3 2 10 5 99 89 83 19 5 1 2 0 0 0 0 0 0 4 0 5 7 8 5 5 1 4 0 0 0 0 0 0
6 5 14 0 89 81 6 5 4 0 3 0 0 0 0 0 0 0 0 0 0 3 98 5 5 5 5 2 0 0 0 0
61 3 5 1 73 99 12 5 5 0 74 0 0 0 0 0 0 0 0 0 0 0 24 16 38 8 5 2 0 0 0 0
100 15 5 5 26 45 16 5 5 0 74 0 0 0 2 0 0 48 21 0 0 0 0 5 37 5 5 0 0 0 0 0
100 97 5 3 97 64 29 5 5 0 6 1 0 0 0 30 45 62 99 6 0 0 0 0 5 3 5 0 0 0 0 0
100 37 91 84 100 90 99 18 5 0 70 70 0 0 0 59 77 100 100 74 0 0 0 3 4 4 0 0 0 0 0 0
100 100 100 100 16 41 5 99 14 39 24 7 0 70 98 100 100 100 100 100 6 0 0 7 75 5 0 0 0 0 0 0
100 100 100 100 16 5 75 54 62 98 100 49 3 40 100 100 100 97 97 98 19 8 14 35 11 5 4 4 0 0 0 0
100 100 100 100 72 86 16 88 81 100 100 100 97 100 100 98 67 82 79 65 98 100 75 6 0 4 0 2 2 2 5 3
100 100 100 100 100 54 92 10 80 100 100 100 100 100 100 100 76 91 100 97 35 75 7 5 0 1 5 3 3 5 50 60
100 100 100 100 100 48 6 21 100 100 100 100 100 100 100 100 100 90 67 100 60 13 34 14 5 73 41 5 3 19 70 100
100 100 100 100 95 59 84 59 100 100 100 100 100 100 100 97 67 30 60 100 27 9 33 37 5 5 100 98 98 98 81 47
100 100 100 100 94 98 99 99 83 100 100 100 100 100 100 100 60 6 45 42 96 85 33 23 5 5 2 10 3 5 5 5
100 100 100 100 100 100 91 74 96 88 100 100 100 100 100 100 100 62 94 53 87 100 99 40 5 5 5 5 4 0 5 5